Location: Azenweiler
(47.8027°N, 9.4096°E)
Time: 15:16:34
(UTC+00:00)

SMAP - Pass Details

Date: 10 December 2025
Orbit: 681 x 683 km, 98.1° (Epoch: 19 January)

Event Time Altitude Azimuth Distance (km) Brightness Sun altitude
Rises 05:53:31 0° 13° (NNE) 3,059 6.3 -10.7°
Reaches altitude 10° 05:55:46 10° 13° (NNE) 2,138 5.5 -10.4°
Maximum altitude 06:00:27 85° 284° (WNW) 692 3.0 -9.6°
Drops below altitude 10° 06:05:06 10° 198° (SSW) 2,120 5.7 -8.9°
Sets 06:07:19 0° 197° (SSW) 3,030 6.5 -8.6°
